Location: Wapato
(46.4478°N, 120.4212°W)
Time: 23:51:50
(UTC+00:00)

Tiros 1 - All Passes

Search period start: 11 May 2026 00:00
Search period end: 21 May 2026 00:00
Orbit: 618 x 648 km, 48.4° (Epoch: 11 May)

Date Brightness Start Highest point End Pass type
(mag) Time Alt. Az. Time Alt. Az. Time Alt. Az.
11 May - 07:35:37 10° SE 07:35:59 10° SE 07:36:21 10° SE visible
11 May - 09:12:39 10° SW 09:16:59 42° SSE 09:21:18 10° ENE visible
11 May - 10:54:08 10° W 10:58:43 79° NNW 11:03:17 10° ENE visible
11 May - 12:36:15 10° WNW 12:40:49 72° N 12:45:22 10° E daylight
11 May - 14:18:13 10° WNW 14:22:41 54° SSW 14:27:07 10° SE daylight
11 May - 16:01:23 10° WSW 16:03:49 14° SW 16:06:17 10° SSW daylight
12 May - 07:53:38 10° S 07:57:01 20° SE 08:00:23 10° E visible
12 May - 09:33:48 10° WSW 09:38:21 69° SSE 09:42:54 10° ENE visible
12 May - 11:15:45 10° W 11:20:20 69° N 11:24:53 10° E visible
12 May - 12:57:48 10° WNW 13:02:23 90° NNW 13:06:57 10° ESE daylight
12 May - 14:39:56 10° W 14:43:58 32° SW 14:48:00 10° SSE daylight
13 May - 08:13:59 10° SSW 08:18:12 36° SE 08:22:24 10° E visible
13 May - 09:55:15 10° WSW 09:59:51 85° NNW 10:04:27 10° ENE visible
13 May - 11:37:22 10° W 11:41:57 70° N 11:46:30 10° E visible
13 May - 13:19:22 10° WNW 13:23:52 63° SSW 13:28:22 10° SE daylight
13 May - 15:02:06 10° W 15:05:08 18° SW 15:08:10 10° S daylight
14 May - 06:55:21 10° S 06:58:18 17° SE 07:01:13 10° E visible
14 May - 08:35:01 10° SW 08:39:32 60° SSE 08:44:03 10° ENE visible
14 May - 10:16:51 10° W 10:21:26 71° N 10:26:00 10° ENE visible
14 May - 11:58:57 10° WNW 12:03:32 83° NNE 12:08:06 10° ESE daylight
14 May - 13:41:00 10° W 13:45:13 38° SSW 13:49:25 10° SE daylight
15 May - 07:15:23 10° SSW 07:19:26 30° SE 07:23:27 10° E visible
15 May - 08:56:23 10° WSW 09:01:00 88° SSE 09:05:35 10° ENE visible
15 May - 10:38:29 10° W 10:43:04 68° N 10:47:37 10° E visible
15 May - 12:20:29 10° WNW 12:25:02 72° SSW 12:29:35 10° ESE daylight
15 May - 14:02:57 10° W 14:06:24 21° SW 14:09:51 10° S daylight
16 May - 05:57:16 10° SSE 05:59:35 14° SE 06:01:53 10° ESE night (unlit)
16 May - 07:36:14 10° SW 07:40:43 52° SSE 07:45:11 10° ENE visible
16 May - 09:17:57 10° W 09:22:34 74° N 09:27:08 10° ENE visible
16 May - 11:00:04 10° WNW 11:04:40 77° NNE 11:09:14 10° E visible
16 May - 12:42:05 10° WNW 12:46:26 45° SSW 12:50:45 10° SE daylight
16 May - 14:26:20 10° WSW 14:27:27 11° SW 14:28:33 10° SSW daylight
17 May - 06:16:52 10° SSW 06:20:40 26° SE 06:24:28 10° E visible
17 May - 07:57:31 10° WSW 08:02:09 80° SSE 08:06:45 10° ENE visible
17 May - 09:39:35 10° W 09:44:10 68° N 09:48:44 10° E visible
17 May - 11:21:37 10° WNW 11:26:12 81° SSW 11:30:45 10° ESE visible
17 May - 13:03:54 10° W 13:07:40 26° SW 13:11:25 10° SSE daylight
18 May - 04:59:40 10° SSE 05:00:53 11° SE 05:02:05 10° ESE night (unlit)
18 May - 06:37:31 10° SW 06:41:55 44° SSE 06:46:18 10° ENE visible
18 May - 08:19:03 10° W 08:23:41 78° NNW 08:28:17 10° ENE visible
18 May - 10:01:11 10° WNW 10:05:48 73° N 10:10:21 10° E visible
18 May - 11:43:11 10° WNW 11:47:38 52° SSW 11:52:03 10° SE visible
18 May - 13:26:29 10° WSW 13:28:45 14° SW 13:31:01 10° SSW daylight
19 May - 05:18:24 10° S 05:21:55 21° SE 05:25:26 10° E visible
19 May - 06:58:41 10° WSW 07:03:18 71° SSE 07:07:53 10° ENE visible
19 May - 08:40:41 10° W 08:45:17 68° N 08:49:52 10° E visible
19 May - 10:22:44 10° WNW 10:27:21 89° SSW 10:31:56 10° ESE visible
19 May - 12:04:54 10° W 12:08:55 31° SW 12:12:54 10° SSE daylight
20 May - 05:38:50 10° SW 05:43:07 38° SSE 05:47:23 10° E visible
20 May - 07:20:09 10° WSW 07:24:49 84° NNW 07:29:25 10° ENE visible
20 May - 09:02:17 10° WNW 09:06:55 70° N 09:11:28 10° E visible
20 May - 10:44:17 10° WNW 10:48:49 61° SSW 10:53:18 10° SE visible
20 May - 12:27:07 10° W 12:30:03 17° SW 12:32:57 10° S daylight
